Location: Harwich
(41.6860°N, 70.0760°W)
Time: 20:52:34
(UTC-04:00)

Cosmos 2228 - Visible Passes

Search period start: 26 March 2017 00:00
Search period end: 05 April 2017 00:00
Orbit: 590 x 620 km, 82.5° (Epoch: 25 March)

Date Brightness Start Highest point End Pass type
(mag) Time Alt. Az. Time Alt. Az. Time Alt. Az.
26 Mar 3.8 05:45:15 10° N 05:49:32 59° E 05:53:49 10° SSE visible
26 Mar 6.1 19:53:14 10° WSW 19:56:19 19° WNW 19:59:24 10° NNW visible
27 Mar 3.0 05:58:13 10° N 06:02:33 81° W 06:06:55 10° S visible
27 Mar 6.6 20:07:58 10° W 20:09:33 12° WNW 20:11:09 10° NW visible
28 Mar 6.3 04:35:07 10° NE 04:37:41 15° ENE 04:40:15 10° ESE visible
29 Mar 5.5 04:47:19 10° NNE 04:50:54 24° ENE 04:54:28 10° SE visible
30 Mar 4.5 04:59:55 10° N 05:04:02 40° ENE 05:08:09 10° SSE visible
31 Mar 3.4 05:12:45 10° N 05:17:06 69° E 05:21:28 10° SSE visible
01 Apr 6.4 03:51:00 10° NE 03:52:02 11° ENE 03:53:04 10° E visible
01 Apr 3.0 05:25:46 10° NNW 05:30:06 69° W 05:34:28 10° S visible
01 Apr 6.9 19:36:43 10° WNW 19:37:11 10° WNW 19:37:39 10° WNW visible
02 Apr 5.9 04:02:21 10° NNE 04:05:18 18° ENE 04:08:16 10° ESE visible
02 Apr 3.5 05:38:58 10° NNW 05:43:03 40° W 05:47:08 10° SSW visible
03 Apr 5.1 04:14:42 10° NNE 04:18:29 28° ENE 04:22:17 10° SE visible
03 Apr 4.1 05:52:25 10° NW 05:55:56 24° W 05:59:27 10° SW visible
04 Apr 4.1 04:27:23 10° N 04:31:36 47° ENE 04:35:50 10° SSE visible
